National Weather Service Raw Text Product

Displaying AFOS PIL: RWRIA Received: 2017-11-15 02:00 UTC


941 
ASUS43 KDMX 150206
RWRIA 

WEATHER ROUNDUP FOR IOWA
NATIONAL WEATHER SERVICE DES MOINES IA
800 PM CST TUE NOV 14 2017

NOTE: "FAIR" INDICATES FEW OR NO CLOUDS BELOW 12,000 FEET WITH NO
SIGNIFICANT WEATHER AND/OR OBSTRUCTIONS TO VISIBILITY.

* - THESE STATIONS ARE NOT NWS STATIONS...THUS NOT UNDER NWS
QUALITY CONTROL.  THEY ALSO DO NOT REPORT WEATHER SUCH 
AS PRECIPITATION OR FOG.  

IAZ001>003-012>014-020>022-031>034-043>046-150300-
   NORTHWEST IOWA
  
CITY           SKY/WX    TMP DP  RH WIND       PRES   REMARKS
CARROLL *      CLOUDY    54  54 100 SW8       29.83S FOG              
CHEROKEE *     CLOUDY    51  50  97 SW10      29.82F                  
DENISON *      CLOUDY    52  52 100 SW9       29.85S FOG              
LE MARS *      CLOUDY    50  48  93 S10       29.80S                  
ORANGE CITY *  CLOUDY    50  48  93 S9        29.79S                  
SHELDON *      CLOUDY    50  48  93 S12       29.76F                  
SIOUX CITY     PTCLDY    51  49  92 S6        29.82F                  
SPENCER        CLOUDY    50  48  93 SW9       29.80F                  
STORM LAKE *   CLOUDY    50  50 100 SW12      29.82S                  
$$
 
IAZ055>058-069>071-079>083-090>094-150300-
   SOUTHWEST IOWA
  
CITY           SKY/WX    TMP DP  RH WIND       PRES   REMARKS
ATLANTIC *     CLOUDY    54  54 100 S13       29.85R FOG              
AUDUBON *      DRIZZLE   54  52  94 S10       29.84S                  
CLARINDA *       N/A     54  54 100 S10         N/A  FOG              
COUNCIL BLFS * CLOUDY    55  55 100 CALM      29.84S FOG              
CRESTON *      CLOUDY    52  52 100 S13       29.88F FOG              
HARLAN  *      CLOUDY    54  54 100 SW9       29.88R FOG              
LAMONI         CLOUDY    51  51 100 S12       29.89F FOG              
RED OAK *      CLOUDY    55  54  94 S12       29.86S FOG              
SHENANDOAH *   CLOUDY    55  54  94 S13       29.85F FOG              
$$
 
IAZ047>049-059>061-072>074-084-150300-
   CENTRAL IOWA
  
CITY           SKY/WX    TMP DP  RH WIND       PRES   REMARKS
AMES           CLOUDY    50  50 100 S10       29.86S FOG              
ANKENY *       CLOUDY    50  48  93 S12       29.89S FOG              
BOONE *        CLOUDY    50  50 100 S12       29.85R FOG              
CHARITON *     CLOUDY    50  48  93 S14G21    29.89S FOG              
DES MOINES     DRIZZLE   50  50 100 S12       29.88F FOG              
GRINNELL*      DRIZZLE   47  46  97 S13       29.91F                  
KNOXVILLE *    CLOUDY    50  48  93 S9G15     29.89S FOG              
MARSHALLTOWN   CLOUDY    48  48 100 S12       29.88F FOG              
NEWTON *       CLOUDY    48  48 100 S10       29.89F FOG              
PELLA *        CLOUDY    49  47  96 S10       29.91F FOG              
PERRY *        CLOUDY    52  51  99 S10       29.86R FOG              
$$
 
IAZ004>006-015-016-023>025-035-036-150300-
   NORTH CENTRAL IOWA
  
CITY           SKY/WX    TMP DP  RH WIND       PRES   REMARKS
ALGONA *       FOG       50  50 100 S9        29.82S VSB 3/4          
CLARION *      CLOUDY    50  50 100 S14       29.84S FOG              
ESTHERVILLE    CLOUDY    49  49 100 S8        29.80S FOG              
FORT DODGE *   LGT RAIN  51  51 100 S9        29.83F FOG              
MASON CITY     LGT RAIN  47  47 100 S9        29.86S FOG              
FOREST CITY *  DRIZZLE   50  50 100 S9        29.83S                  
WEBSTER CITY * CLOUDY    50  50 100 S12G17    29.82S FOG              
IOWA FALLS *   CLOUDY    49  48  97 S15       29.86F FOG              
$$

IAZ007>011-017>019-026>030-037>042-050>054-066-150300-
   NORTHEAST IOWA
  
CITY           SKY/WX    TMP DP  RH WIND       PRES   REMARKS
CEDAR RAPIDS   CLOUDY    47  41  80 S12       29.94R                  
CHARLES CITY * CLOUDY    45  45 100 S10       29.88R FOG              
CLINTON *      CLOUDY    47  39  74 S10       29.99F                  
DECORAH *      FOG       43  41  93 SE10      29.89F VSB 3/4          
DUBUQUE        CLOUDY    43  38  82 S10       29.96R                  
MONTICELLO *   CLOUDY    45  39  81 S10       29.96S                  
OELWEIN *      CLOUDY    45  45 100 S17       29.89F FOG              
WATERLOO       CLOUDY    45  44  97 S9        29.88F FOG              
$$
 
IAZ064-065-067-068-078-150300-
   EAST CENTRAL IOWA
  
CITY           SKY/WX    TMP DP  RH WIND       PRES   REMARKS
DAVENPORT      CLOUDY    48  37  65 S17       29.98F                  
IOWA CITY      CLOUDY    49  40  71 S8        29.97S                  
MT. PLEASANT * CLOUDY    48  38  66 S14       29.95F                  
MUSCATINE *    CLOUDY    48  37  66 SE12G18   29.96F                  
QUAD CITIES    CLOUDY    50  37  61 S13       29.97F                  
$$
 
IAZ062-063-075>077-085>089-095>099-150300-
   SOUTHEAST IOWA
  
CITY           SKY/WX    TMP DP  RH WIND       PRES   REMARKS
BURLINGTON     CLOUDY    49  38  65 S15       29.97F                  
FAIRFIELD *    CLOUDY    50  43  76 S13       29.93F                  
FORT MADISON * CLOUDY    48  39  71 S10       29.98F                  
KEOKUK *       CLOUDY    50  39  66 S7G14     29.96F                  
OSKALOOSA *    CLOUDY    47  46  97 S15       29.92S FOG              
OTTUMWA        CLOUDY    49  48  97 S13       29.92S FOG              
WASHINGTON *   CLOUDY    48  43  81 S13       29.96R                  
$$

ABBREVIATIONS USED IN REMARKS
   TC - TEMPERATURES IN CELSIUS
  WCI - WIND CHILL INDEX
   HX - HEAT INDEX
  VSB - VISIBILITY  
$$

  

896 
ASUS43 KDMX 150201
RWRIA 

WEATHER ROUNDUP FOR IOWA
NATIONAL WEATHER SERVICE DES MOINES IA
800 PM CST TUE NOV 14 2017

NOTE: "FAIR" INDICATES FEW OR NO CLOUDS BELOW 12,000 FEET WITH NO
SIGNIFICANT WEATHER AND/OR OBSTRUCTIONS TO VISIBILITY.

* - THESE STATIONS ARE NOT NWS STATIONS...THUS NOT UNDER NWS
QUALITY CONTROL.  THEY ALSO DO NOT REPORT WEATHER SUCH 
AS PRECIPITATION OR FOG.  

IAZ001>003-012>014-020>022-031>034-043>046-150300-
   NORTHWEST IOWA
  
CITY           SKY/WX    TMP DP  RH WIND       PRES   REMARKS
CARROLL *      CLOUDY    54  54 100 SW8       29.83S FOG              
CHEROKEE *     CLOUDY    51  50  97 SW10      29.82F                  
DENISON *      CLOUDY    52  52 100 SW9       29.85S FOG              
LE MARS *      CLOUDY    50  48  93 S10       29.80S                  
ORANGE CITY *  CLOUDY    50  48  93 S9        29.79S                  
SHELDON *      CLOUDY    50  48  93 S12       29.76F                  
SIOUX CITY     PTCLDY    51  49  92 S6        29.82F                  
SPENCER        CLOUDY    50  48  93 SW10      29.80F                  
STORM LAKE *   CLOUDY    50  50 100 SW12      29.82S                  
$$
 
IAZ055>058-069>071-079>083-090>094-150300-
   SOUTHWEST IOWA
  
CITY           SKY/WX    TMP DP  RH WIND       PRES   REMARKS
ATLANTIC *     CLOUDY    54  54 100 S13       29.85R FOG              
AUDUBON *      DRIZZLE   54  52  94 S10       29.84S                  
CLARINDA *       N/A     54  54 100 S10         N/A  FOG              
COUNCIL BLFS * CLOUDY    55  55 100 CALM      29.84S FOG              
CRESTON *      CLOUDY    52  52 100 S13       29.88F FOG              
HARLAN  *      CLOUDY    54  54 100 SW9       29.88R FOG              
LAMONI         CLOUDY    51  51 100 S12       29.89F FOG              
RED OAK *      CLOUDY    55  54  94 S12       29.86S FOG              
SHENANDOAH *   CLOUDY    55  54  94 S13       29.85F FOG              
$$
 
IAZ047>049-059>061-072>074-084-150300-
   CENTRAL IOWA
  
CITY           SKY/WX    TMP DP  RH WIND       PRES   REMARKS
AMES           CLOUDY    50  50 100 S10       29.86S FOG              
ANKENY *       CLOUDY    50  48  93 S12       29.89S FOG              
BOONE *        CLOUDY    50  50 100 S12       29.85R FOG              
CHARITON *     CLOUDY    50  48  93 S14G21    29.89S FOG              
DES MOINES     DRIZZLE   50  50 100 S12       29.88F FOG              
GRINNELL*      DRIZZLE   47  46  97 S13       29.91F                  
KNOXVILLE *    CLOUDY    50  48  93 S9G15     29.89S FOG              
MARSHALLTOWN   CLOUDY    48  48 100 S12       29.88F FOG              
NEWTON *       CLOUDY    48  48 100 S10       29.89F FOG              
PELLA *        CLOUDY    49  47  96 S10       29.91F FOG              
PERRY *        CLOUDY    52  51  99 S10       29.86R FOG              
$$
 
IAZ004>006-015-016-023>025-035-036-150300-
   NORTH CENTRAL IOWA
  
CITY           SKY/WX    TMP DP  RH WIND       PRES   REMARKS
ALGONA *       FOG       50  50 100 S9        29.82S VSB 3/4          
CLARION *      CLOUDY    50  50 100 S14       29.84S FOG              
ESTHERVILLE    CLOUDY    49  49 100 S8        29.80S FOG              
FORT DODGE *   LGT RAIN  51  51 100 S9        29.83F FOG              
MASON CITY     LGT RAIN  47  47 100 S9        29.86S FOG              
FOREST CITY *  DRIZZLE   50  50 100 S9        29.83S                  
WEBSTER CITY * CLOUDY    50  50 100 S12G17    29.82S FOG              
IOWA FALLS *   CLOUDY    49  48  97 S15       29.86F FOG              
$$

IAZ007>011-017>019-026>030-037>042-050>054-066-150300-
   NORTHEAST IOWA
  
CITY           SKY/WX    TMP DP  RH WIND       PRES   REMARKS
CEDAR RAPIDS   CLOUDY    47  41  80 S12       29.94R                  
CHARLES CITY * CLOUDY    45  45 100 S10       29.88R FOG              
CLINTON *      CLOUDY    47  39  74 S10       29.99F                  
DECORAH *      FOG       43  41  93 SE10      29.89F VSB 3/4          
DUBUQUE        CLOUDY    43  38  82 S10       29.96R                  
MONTICELLO *   CLOUDY    45  39  81 S10       29.96S                  
OELWEIN *      CLOUDY    45  45 100 S17       29.89F FOG              
WATERLOO       CLOUDY    45  44  97 S9        29.88F FOG              
$$
 
IAZ064-065-067-068-078-150300-
   EAST CENTRAL IOWA
  
CITY           SKY/WX    TMP DP  RH WIND       PRES   REMARKS
DAVENPORT      CLOUDY    48  37  65 S17       29.98F                  
IOWA CITY      CLOUDY    49  40  71 S8        29.97S                  
MT. PLEASANT * CLOUDY    48  38  66 S14       29.95F                  
MUSCATINE *    CLOUDY    48  37  66 SE12G18   29.96F                  
QUAD CITIES    CLOUDY    50  37  61 S13       29.97F                  
$$
 
IAZ062-063-075>077-085>089-095>099-150300-
   SOUTHEAST IOWA
  
CITY           SKY/WX    TMP DP  RH WIND       PRES   REMARKS
BURLINGTON     CLOUDY    49  38  65 S15       29.97F                  
FAIRFIELD *    CLOUDY    50  43  76 S13       29.93F                  
FORT MADISON * CLOUDY    48  39  71 S10       29.98F                  
KEOKUK *       CLOUDY    50  39  66 S7G14     29.96F                  
OSKALOOSA *    CLOUDY    47  46  97 S15       29.92S FOG              
OTTUMWA        CLOUDY    49  48  97 S13       29.92S FOG              
WASHINGTON *   CLOUDY    48  43  81 S13       29.96R                  
$$

ABBREVIATIONS USED IN REMARKS
   TC - TEMPERATURES IN CELSIUS
  WCI - WIND CHILL INDEX
   HX - HEAT INDEX
  VSB - VISIBILITY  
$$